Regional Weather Roundup
Issued by NWS

Home | Current Version | Previous Version | Text Only | Print | Product List | Glossary On
Versions: 1 2 3 4 5 6 7 8 9 10 11 12 13 14 15 16 17 18 19 20 21 22 23 24 25 26 27 28 29 30 31 32 33 34 35 36 37 38 39 40 41 42 43 44 45 46 47 48 49 50
000
ASUS44 KEWX 230103
RWRTX
SOUTH TEXAS REGIONAL WEATHER ROUNDUP
NATIONAL WEATHER SERVICE AUSTIN/SAN ANTONIO TX
700 PM CST SUN JAN 22 2017

NOTE: "FAIR" INDICATED FEW OR NO CLOUDS BELOW 12,000 FEET WITH NO
SIGNIFICANT WEATHER AND/OR OBSTRUCTIONS TO VISIBILITY.

* - THESE STATIONS ARE NOT NWS OR FAA STATIONS...AND ARE NOT SUBJECT
    TO NWS AND FAA QUALITY CONTROL.

TXZ171-172-183>190-230200-
TEXAS HILL COUNTRY AND EDWARDS PLATEAU

CITY           SKY/WX    TMP DP  RH WIND       PRES   REMARKS
JUNCTION       CLEAR     57  31  37 NW6       29.98R
*LLANO         CLEAR     59  32  36 NW6       29.97R
BURNET         CLEAR     60  29  30 NW13        N/A
*HORSESHOE BAY CLEAR     61  31  32 NW8       29.93R
*KERRVILLE     CLEAR     57  32  37 NW6       29.96R
*FREDERICKSBRG CLEAR     56  29  34 NW9       29.95R
*ROCKSPRINGS   CLEAR     57  30  35 NW7       30.01R
*BOERNE STAGE  CLEAR     57  32  38 NW5       29.96R
*CASTROVILLE   CLEAR     63  30  29 NW8       29.96R
HONDO            N/A     62  29  28 N10       29.95R
*UVALDE        CLEAR     61  29  29 N6        29.98R
DEL RIO        CLEAR     61  25  25 NW8       29.97R
LAUGHLIN AFB   CLEAR     58  32  37 N7        29.98R
CARRIZO SPRGS  CLEAR     64  27  24 NW3       29.96R
*EAGLE PASS      N/A    N/A N/A N/A MISG        N/A
$$

TXZ173-191>194-202-209-217>225-228-230200-
CENTRAL AND SOUTH CENTRAL TEXAS

CITY           SKY/WX    TMP DP  RH WIND       PRES   REMARKS
GEORGETOWN     CLEAR     61  30  31 NW14      29.90R
AUSTIN/BERGSTM CLEAR     65  31  28 NW16G23   29.89R
AUSTIN/MABRY   CLEAR     64  32  30 NW10      29.91R
*AUSTIN/EXEC   CLEAR     61  32  33 NW8G16    29.90R
*LAGO VISTA    CLEAR     61  30  30 NW13G22   29.91R
SAN MARCOS     CLEAR     57  34  41 NW7       29.92R
NEW BRAUNFELS  CLEAR     62  36  37 NW10      29.91R
RANDOLPH AFB   CLEAR     59  33  36 NW7       29.93R
PT SAN ANTONIO CLEAR     64  33  31 NW10      29.92R
SAN ANTONIO    CLEAR     61  33  35 NW7       29.94R
STINSON FIELD  CLEAR     67  32  27 NW8       29.92R
*PLEASANTON    CLEAR     63  33  33 NW6       29.94R
*LA GRANGE     CLEAR     64  38  37 NW9       29.86R
*GIDDINGS      CLEAR     63  34  33 NW14G21   29.89R
*GONZALES      CLEAR     63  37  38 NW7       29.89R
$$

TXZ163>164-176>182-195>201-210>213-226-227-235-230200-
SOUTHEAST TEXAS

CITY           SKY/WX    TMP DP  RH WIND       PRES   REMARKS
COLLEGE STN    CLEAR     62  39  42 NW15G23   29.84R
*BRYAN         CLEAR     61  38  43 NW14      29.86R
*CALDWELL      NOT AVBL
*CROCKETT        N/A    N/A N/A N/A MISG        N/A
*BRENHAM       CLEAR     64  38  37 NW15      29.85R
HUNTSVILLE     CLEAR     62  38  40 NW14G22   29.80R
CONROE         CLEAR     61  42  49 NW16G22   29.79R
HOUSTON BUSH   CLEAR     63  42  46 NW12G21   29.79R
HOUSTON HOBBY  CLEAR     64  42  44 NW20G25   29.79R
*HOUSTON SW AP CLEAR     61  43  51 W8        29.82R
PEARLAND       CLEAR     65  42  43 NW12      29.81R
HOUSTON HOOKS  CLEAR     62  42  47 NW14      29.80R
ELLINGTON FLD  PTCLDY    63  45  51 NW17      29.80R
SUGAR LAND     NOT AVBL
*HOUSTON EXEC  PTCLDY    59  45  58 NW9       29.84R
*CLEVELAND MUN CLEAR     61  44  53 NW7G17    29.78R
*WHARTON       CLEAR     60  42  51 W9        29.85R
*COLUMBUS      FAIR      62  36  37 NW7       29.86R
*EAGLE LAKE    CLEAR     64  44  49 NW9       29.84R
$$

TXZ214>216-236>238-230200-
THE UPPER TEXAS COAST

CITY           SKY/WX    TMP DP  RH WIND       PRES   REMARKS
*ORANGE        CLOUDY    62  46  55 NW16G30   29.72R
PORT ARTHUR    MOCLDY    62  45  53 NW16G28   29.72R
GALVESTON      CLEAR     65  47  52 NW18G30   29.79R
ANGLETON       CLEAR     63  46  54 NW7       29.82R
*BAY CITY      CLEAR     61  46  58 NW6       29.84R
PALACIOS       CLEAR     61  44  53 W8        29.85R
$$

TXZ229>234-239>247-230200-
TEXAS COASTAL BEND AND RIO GRANDE PLAINS

CITY           SKY/WX    TMP DP  RH WIND       PRES   REMARKS
VICTORIA       CLEAR     61  44  53 NW10      29.88R
*BEEVILLE      CLEAR     68  37  32 NW8       29.90R
ROCKPORT       CLEAR     68  43  40 NW15      29.89R
*PORT ARANSAS  CLEAR     66  43  42 N10       29.89R
*PORT LAVACA   CLEAR     63  46  54 CALM      29.88R
*INGLESIDE     CLEAR     69  35  28 NW18G24   29.88R
CORPUS CHRISTI CLEAR     69  30  23 NW15      29.89R
CORPUS NAS     CLEAR     67  46  47 NW14      29.88R
*ROBSTOWN      CLEAR     71  30  22 NW15      29.89R
ALICE          CLEAR     68  27  21 NW10      29.91R
KINGSVILLE NAS CLEAR     69  30  23 W13       29.91R
COTULLA        CLEAR     67  27  22 NW9       29.96R
*FAITH RANCH   CLEAR     66  23  19 N9        29.97R
LAREDO         CLEAR     67  23  19 NW10      29.97R
$$

TXZ248>255-230200-
DEEP SOUTH TEXAS

CITY           SKY/WX    TMP DP  RH WIND       PRES   REMARKS
BROWNSVILLE    CLEAR     73  24  16 NW12      29.92R
PORT ISABEL    CLEAR     69  29  22 NW8       29.91R
*SOUTH PADRE   NOT AVBL
HARLINGEN      CLEAR     68  28  22 NW12      29.92R
*HEBBRONVILLE  CLEAR     66  21  18 NW10      29.96R
MCALLEN        CLEAR     76  22  13 N17       29.92R
*WESLACO       CLEAR     68  27  21 N8        29.92R
FALFURRIAS     CLEAR     70  20  15 NW9       29.93R
EDINBURG       CLEAR     71  16  12 N9        29.93R
*ZAPATA        CLEAR     69  19  15 N9        29.94R
$$

TXZ213>215-236>238-242>244-246-247-251-254-255-230200-
CMAN STATIONS

STATION/POSITION TIME  TEMP    WIND        PRES    WAVE
                       AIR SEA DIR/SP/G            HT/PER
                 (UTC) (F)     (DEG/KT/KT) (MB)    (FT/S)
SABINE PASS      0030   62 68  300/ 13/ 22 1007.1
SEA RIM ST PARK  0000   61     310/ 20/ 25 1006.2
NORTH JETTY/GLS  0030   65 65  300/ 22/ 32   N/A
EAGLE POINT      0030   63 65  320/ 11/ 21 1007.9
MORGANS POINT    0030   64 65  290/ 17/ 21 1008.1
PORT O`CONNOR    0030   66     300/ 15/ 18 1010.6
PORT ARANSAS     0000   71 61  320/ 14/ 18 1010.8
MALAQUITE BEACH  0030   72 63  310/ 13/ 17 1012.1
BAFFIN BAY       0030   70 64  290/ 16/ 18 1011.9
PORT ISABEL      0030   69 67  330/  5/  9 1012.3
$$

GMZ080-GMZ150>470-230200-
OFFSHORE BUOY REPORTS

STATION/POSITION TIME  TEMP    WIND        PRES    WAVE
                       AIR SEA DIR/SP/G            HT/PER
                 (UTC) (F)     (DEG/KT/KT) (MB)    (FT/S)
20 E GALVESTON   2350   65 66  300/ 31/ 37 1005.1    7/ 5
90 E PT ARANSAS  2350   70 72  310/ 25/ 29 1007.7    8/ 6
35 NE PT MANSFLD 2350   73     310/ 21/ 25 1009.8    6/ 6
200 E PT ISABEL  2350   72 74  300/ 27/ 33 1007.8   14/10
$$




USA.gov is the U.S. government's official web portal to all federal, state and local government web resources and services.